Year,Month,Day,Hour,Minute,Value (Times are PST for barometer in hPa)
2012,12,15,00,00,1008.88
2012,12,15,00,01,1008.87
2012,12,15,00,02,1008.87
2012,12,15,00,03,1008.87
2012,12,15,00,04,1008.87
2012,12,15,00,05,1008.87
2012,12,15,00,06,1008.87
2012,12,15,00,07,1008.87
2012,12,15,00,08,1008.87
2012,12,15,00,09,1008.87
2012,12,15,00,10,1008.87
2012,12,15,00,11,1008.87
2012,12,15,00,12,1008.87
2012,12,15,00,13,1008.87
2012,12,15,00,14,1008.87
2012,12,15,00,15,1008.91
2012,12,15,00,16,1008.91
2012,12,15,00,17,1008.91
2012,12,15,00,18,1008.91
2012,12,15,00,19,1008.91
2012,12,15,00,20,1008.91
2012,12,15,00,21,1008.91
2012,12,15,00,22,1008.91
2012,12,15,00,23,1008.91
2012,12,15,00,24,1008.91
2012,12,15,00,25,1008.91
2012,12,15,00,26,1008.91
2012,12,15,00,27,1008.91
2012,12,15,00,28,1008.91
2012,12,15,00,29,1008.91
2012,12,15,00,30,1008.77
2012,12,15,00,31,1008.77
2012,12,15,00,32,1008.77
2012,12,15,00,33,1008.77
2012,12,15,00,34,1008.77
2012,12,15,00,35,1008.77
2012,12,15,00,36,1008.77
2012,12,15,00,37,1008.77
2012,12,15,00,38,1008.77
2012,12,15,00,39,1008.77
2012,12,15,00,40,1008.77
2012,12,15,00,41,1008.77
2012,12,15,00,42,1008.77
2012,12,15,00,43,1008.77
2012,12,15,00,44,1008.77
2012,12,15,00,45,1008.44
2012,12,15,00,46,1008.43
2012,12,15,00,47,1008.43
2012,12,15,00,48,1008.43
2012,12,15,00,49,1008.43
2012,12,15,00,50,1008.43
2012,12,15,00,51,1008.43
2012,12,15,00,52,1008.43
2012,12,15,00,53,1008.43
2012,12,15,00,54,1008.43
2012,12,15,00,55,1008.43
2012,12,15,00,56,1008.43
2012,12,15,00,57,1008.43
2012,12,15,00,58,1008.43
2012,12,15,00,59,1008.43
2012,12,15,01,00,1008.47
2012,12,15,01,01,1008.47
2012,12,15,01,02,1008.47
2012,12,15,01,03,1008.47
2012,12,15,01,04,1008.47
2012,12,15,01,05,1008.47
2012,12,15,01,06,1008.47
2012,12,15,01,07,1008.47
2012,12,15,01,08,1008.47
2012,12,15,01,09,1008.47
2012,12,15,01,10,1008.47
2012,12,15,01,11,1008.47
2012,12,15,01,12,1008.47
2012,12,15,01,13,1008.47
2012,12,15,01,14,1008.47
2012,12,15,01,15,1008.40
2012,12,15,01,16,1008.40
2012,12,15,01,17,1008.40
2012,12,15,01,18,1008.40
2012,12,15,01,19,1008.40
2012,12,15,01,20,1008.40
2012,12,15,01,21,1008.40
2012,12,15,01,22,1008.40
2012,12,15,01,23,1008.40
2012,12,15,01,24,1008.40
2012,12,15,01,25,1008.40
2012,12,15,01,26,1008.40
2012,12,15,01,27,1008.40
2012,12,15,01,28,1008.40
2012,12,15,01,29,1008.40
2012,12,15,01,30,1008.26
2012,12,15,01,31,1008.26
2012,12,15,01,32,1008.26
2012,12,15,01,33,1008.26
2012,12,15,01,34,1008.26
2012,12,15,01,35,1008.26
2012,12,15,01,36,1008.26
2012,12,15,01,37,1008.26
2012,12,15,01,38,1008.26
2012,12,15,01,39,1008.26
2012,12,15,01,40,1008.26
2012,12,15,01,41,1008.26
2012,12,15,01,42,1008.26
2012,12,15,01,43,1008.26
2012,12,15,01,44,1008.26
2012,12,15,01,45,1008.13
2012,12,15,01,46,1008.13
2012,12,15,01,47,1008.13
2012,12,15,01,48,1008.13
2012,12,15,01,49,1008.13
2012,12,15,01,50,1008.13
2012,12,15,01,51,1008.13
2012,12,15,01,52,1008.13
2012,12,15,01,53,1008.13
2012,12,15,01,54,1008.13
2012,12,15,01,55,1008.13
2012,12,15,01,56,1008.13
2012,12,15,01,57,1008.13
2012,12,15,01,58,1008.13
2012,12,15,01,59,1008.13
2012,12,15,02,00,1008.09
2012,12,15,02,01,1008.09
2012,12,15,02,02,1008.09
2012,12,15,02,03,1008.09
2012,12,15,02,04,1008.09
2012,12,15,02,05,1008.09
2012,12,15,02,06,1008.09
2012,12,15,02,07,1008.09
2012,12,15,02,08,1008.09
2012,12,15,02,09,1008.09
2012,12,15,02,10,1008.09
2012,12,15,02,11,1008.09
2012,12,15,02,12,1008.09
2012,12,15,02,13,1008.09
2012,12,15,02,14,1008.09
2012,12,15,02,15,1007.77
2012,12,15,02,16,1007.76
2012,12,15,02,17,1007.76
2012,12,15,02,18,1007.76
2012,12,15,02,19,1007.76
2012,12,15,02,20,1007.76
2012,12,15,02,21,1007.76
2012,12,15,02,22,1007.76
2012,12,15,02,23,1007.76
2012,12,15,02,24,1007.76
2012,12,15,02,25,1007.76
2012,12,15,02,26,1007.76
2012,12,15,02,27,1007.76
2012,12,15,02,28,1007.76
2012,12,15,02,29,1007.76
2012,12,15,02,30,1007.43
2012,12,15,02,31,1007.42
2012,12,15,02,32,1007.42
2012,12,15,02,33,1007.42
2012,12,15,02,34,1007.42
2012,12,15,02,35,1007.42
2012,12,15,02,36,1007.42
2012,12,15,02,37,1007.42
2012,12,15,02,38,1007.42
2012,12,15,02,39,1007.42
2012,12,15,02,40,1007.42
2012,12,15,02,41,1007.42
2012,12,15,02,42,1007.42
2012,12,15,02,43,1007.42
2012,12,15,02,44,1007.42
2012,12,15,02,45,1007.21
2012,12,15,02,46,1007.21
2012,12,15,02,47,1007.21
2012,12,15,02,48,1007.21
2012,12,15,02,49,1007.21
2012,12,15,02,50,1007.21
2012,12,15,02,51,1007.21
2012,12,15,02,52,1007.21
2012,12,15,02,53,1007.21
2012,12,15,02,54,1007.21
2012,12,15,02,55,1007.21
2012,12,15,02,56,1007.21
2012,12,15,02,57,1007.21
2012,12,15,02,58,1007.21
2012,12,15,02,59,1007.21
2012,12,15,03,00,1006.83
2012,12,15,03,01,1006.81
2012,12,15,03,02,1006.81
2012,12,15,03,03,1006.81
2012,12,15,03,04,1006.81
2012,12,15,03,05,1006.81
2012,12,15,03,06,1006.81
2012,12,15,03,07,1006.81
2012,12,15,03,08,1006.81
2012,12,15,03,09,1006.81
2012,12,15,03,10,1006.81
2012,12,15,03,11,1006.81
2012,12,15,03,12,1006.81
2012,12,15,03,13,1006.81
2012,12,15,03,14,1006.81
2012,12,15,03,15,1006.46
2012,12,15,03,16,1006.44
2012,12,15,03,17,1006.44
2012,12,15,03,18,1006.44
2012,12,15,03,19,1006.44
2012,12,15,03,20,1006.44
2012,12,15,03,21,1006.44
2012,12,15,03,22,1006.44
2012,12,15,03,23,1006.44
2012,12,15,03,24,1006.44
2012,12,15,03,25,1006.44
2012,12,15,03,26,1006.44
2012,12,15,03,27,1006.44
2012,12,15,03,28,1006.44
2012,12,15,03,29,1006.44
2012,12,15,03,30,1006.21
2012,12,15,03,31,1006.20
2012,12,15,03,32,1006.20
2012,12,15,03,33,1006.20
2012,12,15,03,34,1006.20
2012,12,15,03,35,1006.20
2012,12,15,03,36,1006.20
2012,12,15,03,37,1006.20
2012,12,15,03,38,1006.20
2012,12,15,03,39,1006.20
2012,12,15,03,40,1006.20
2012,12,15,03,41,1006.20
2012,12,15,03,42,1006.20
2012,12,15,03,43,1006.20
2012,12,15,03,44,1006.20
2012,12,15,03,45,1006.16
2012,12,15,03,46,1006.16
2012,12,15,03,47,1006.16
2012,12,15,03,48,1006.16
2012,12,15,03,49,1006.16
2012,12,15,03,50,1006.16
2012,12,15,03,51,1006.16
2012,12,15,03,52,1006.16
2012,12,15,03,53,1006.16
2012,12,15,03,54,1006.16
2012,12,15,03,55,1006.16
2012,12,15,03,56,1006.16
2012,12,15,03,57,1006.16
2012,12,15,03,58,1006.16
2012,12,15,03,59,1006.16
2012,12,15,04,00,1005.83
2012,12,15,04,01,1005.83
2012,12,15,04,02,1005.83
2012,12,15,04,03,1005.83
2012,12,15,04,04,1005.83
2012,12,15,04,05,1005.83
2012,12,15,04,06,1005.83
2012,12,15,04,07,1005.83
2012,12,15,04,08,1005.83
2012,12,15,04,09,1005.83
2012,12,15,04,10,1005.83
2012,12,15,04,11,1005.83
2012,12,15,04,12,1005.83
2012,12,15,04,13,1005.83
2012,12,15,04,14,1005.83
2012,12,15,04,15,1005.62
2012,12,15,04,16,1005.62
2012,12,15,04,17,1005.62
2012,12,15,04,18,1005.62
2012,12,15,04,19,1005.62
2012,12,15,04,20,1005.62
2012,12,15,04,21,1005.62
2012,12,15,04,22,1005.62
2012,12,15,04,23,1005.62
2012,12,15,04,24,1005.62
2012,12,15,04,25,1005.62
2012,12,15,04,26,1005.62
2012,12,15,04,27,1005.62
2012,12,15,04,28,1005.62
2012,12,15,04,29,1005.62
2012,12,15,04,30,1005.29
2012,12,15,04,31,1005.28
2012,12,15,04,32,1005.28
2012,12,15,04,33,1005.28
2012,12,15,04,34,1005.28
2012,12,15,04,35,1005.28
2012,12,15,04,36,1005.28
2012,12,15,04,37,1005.28
2012,12,15,04,38,1005.28
2012,12,15,04,39,1005.28
2012,12,15,04,40,1005.28
2012,12,15,04,41,1005.28
2012,12,15,04,42,1005.28
2012,12,15,04,43,1005.28
2012,12,15,04,44,1005.28
2012,12,15,04,45,1005.18
2012,12,15,04,46,1005.18
2012,12,15,04,47,1005.18
2012,12,15,04,48,1005.18
2012,12,15,04,49,1005.18
2012,12,15,04,50,1005.18
2012,12,15,04,51,1005.18
2012,12,15,04,52,1005.18
2012,12,15,04,53,1005.18
2012,12,15,04,54,1005.18
2012,12,15,04,55,1005.18
2012,12,15,04,56,1005.18
2012,12,15,04,57,1005.18
2012,12,15,04,58,1005.18
2012,12,15,04,59,1005.18
2012,12,15,05,00,1004.67
2012,12,15,05,01,1004.67
2012,12,15,05,02,1004.67
2012,12,15,05,03,1004.67
2012,12,15,05,04,1004.67
2012,12,15,05,05,1004.67
2012,12,15,05,06,1004.67
2012,12,15,05,07,1004.67
2012,12,15,05,08,1004.67
2012,12,15,05,09,1004.67
2012,12,15,05,10,1004.67
2012,12,15,05,11,1004.67
2012,12,15,05,12,1004.67
2012,12,15,05,13,1004.67
2012,12,15,05,14,1004.67
2012,12,15,05,15,1004.10
2012,12,15,05,16,1004.10
2012,12,15,05,17,1004.10
2012,12,15,05,18,1004.10
2012,12,15,05,19,1004.10
2012,12,15,05,20,1004.10
2012,12,15,05,21,1004.10
2012,12,15,05,22,1004.10
2012,12,15,05,23,1004.10
2012,12,15,05,24,1004.10
2012,12,15,05,25,1004.10
2012,12,15,05,26,1004.10
2012,12,15,05,27,1004.10
2012,12,15,05,28,1004.10
2012,12,15,05,29,1004.10
2012,12,15,05,30,1004.13
2012,12,15,05,31,1004.13
2012,12,15,05,32,1004.13
2012,12,15,05,33,1004.13
2012,12,15,05,34,1004.13
2012,12,15,05,35,1004.13
2012,12,15,05,36,1004.13
2012,12,15,05,37,1004.13
2012,12,15,05,38,1004.13
2012,12,15,05,39,1004.13
2012,12,15,05,40,1004.13
2012,12,15,05,41,1004.13
2012,12,15,05,42,1004.13
2012,12,15,05,43,1004.13
2012,12,15,05,44,1004.13
2012,12,15,05,45,1003.68
2012,12,15,05,46,1003.66
2012,12,15,05,47,1003.66
2012,12,15,05,48,1003.66
2012,12,15,05,49,1003.66
2012,12,15,05,50,1003.66
2012,12,15,05,51,1003.66
2012,12,15,05,52,1003.66
2012,12,15,05,53,1003.66
2012,12,15,05,54,1003.66
2012,12,15,05,55,1003.66
2012,12,15,05,56,1003.66
2012,12,15,05,57,1003.66
2012,12,15,05,58,1003.66
2012,12,15,05,59,1003.66
2012,12,15,06,00,1003.59
2012,12,15,06,01,1003.59
2012,12,15,06,02,1003.59
2012,12,15,06,03,1003.59
2012,12,15,06,04,1003.59
2012,12,15,06,05,1003.59
2012,12,15,06,06,1003.59
2012,12,15,06,07,1003.59
2012,12,15,06,08,1003.59
2012,12,15,06,09,1003.59
2012,12,15,06,10,1003.59
2012,12,15,06,11,1003.59
2012,12,15,06,12,1003.59
2012,12,15,06,13,1003.59
2012,12,15,06,14,1003.59
2012,12,15,06,15,1003.22
2012,12,15,06,16,1003.22
2012,12,15,06,17,1003.22
2012,12,15,06,18,1003.22
2012,12,15,06,19,1003.22
2012,12,15,06,20,1003.22
2012,12,15,06,21,1003.22
2012,12,15,06,22,1003.22
2012,12,15,06,23,1003.22
2012,12,15,06,24,1003.22
2012,12,15,06,25,1003.22
2012,12,15,06,26,1003.22
2012,12,15,06,27,1003.22
2012,12,15,06,28,1003.22
2012,12,15,06,29,1003.22
2012,12,15,06,30,1003.01
2012,12,15,06,31,1003.01
2012,12,15,06,32,1003.01
2012,12,15,06,33,1003.01
2012,12,15,06,34,1003.01
2012,12,15,06,35,1003.01
2012,12,15,06,36,1003.01
2012,12,15,06,37,1003.01
2012,12,15,06,38,1003.01
2012,12,15,06,39,1003.01
2012,12,15,06,40,1003.01
2012,12,15,06,41,1003.01
2012,12,15,06,42,1003.01
2012,12,15,06,43,1003.01
2012,12,15,06,44,1003.01
2012,12,15,06,45,1002.98
2012,12,15,06,46,1002.98
2012,12,15,06,47,1002.98
2012,12,15,06,48,1002.98
2012,12,15,06,49,1002.98
2012,12,15,06,50,1002.98
2012,12,15,06,51,1002.98
2012,12,15,06,52,1002.98
2012,12,15,06,53,1002.98
2012,12,15,06,54,1002.98
2012,12,15,06,55,1002.98
2012,12,15,06,56,1002.98
2012,12,15,06,57,1002.98
2012,12,15,06,58,1002.98
2012,12,15,06,59,1002.98
2012,12,15,07,00,1002.53
2012,12,15,07,01,1002.51
2012,12,15,07,02,1002.51
2012,12,15,07,03,1002.51
2012,12,15,07,04,1002.51
2012,12,15,07,05,1002.51
2012,12,15,07,06,1002.51
2012,12,15,07,07,1002.51
2012,12,15,07,08,1002.51
2012,12,15,07,09,1002.51
2012,12,15,07,10,1002.51
2012,12,15,07,11,1002.51
2012,12,15,07,12,1002.51
2012,12,15,07,13,1002.51
2012,12,15,07,14,1002.51
2012,12,15,07,15,1001.70
2012,12,15,07,16,1001.66
2012,12,15,07,17,1001.66
2012,12,15,07,18,1001.66
2012,12,15,07,19,1001.66
2012,12,15,07,20,1001.66
2012,12,15,07,21,1001.66
2012,12,15,07,22,1001.66
2012,12,15,07,23,1001.66
2012,12,15,07,24,1001.66
2012,12,15,07,25,1001.66
2012,12,15,07,26,1001.66
2012,12,15,07,27,1001.66
2012,12,15,07,28,1001.66
2012,12,15,07,29,1001.66
2012,12,15,07,30,1001.17
2012,12,15,07,31,1001.15
2012,12,15,07,32,1001.15
2012,12,15,07,33,1001.15
2012,12,15,07,34,1001.15
2012,12,15,07,35,1001.15
2012,12,15,07,36,1001.15
2012,12,15,07,37,1001.15
2012,12,15,07,38,1001.15
2012,12,15,07,39,1001.15
2012,12,15,07,40,1001.15
2012,12,15,07,41,1001.15
2012,12,15,07,42,1001.15
2012,12,15,07,43,1001.15
2012,12,15,07,44,1001.15
2012,12,15,07,45,1001.03
2012,12,15,07,46,1001.02
2012,12,15,07,47,1001.02
2012,12,15,07,48,1001.02
2012,12,15,07,49,1001.02
2012,12,15,07,50,1001.02
2012,12,15,07,51,1001.02
2012,12,15,07,52,1001.02
2012,12,15,07,53,1001.02
2012,12,15,07,54,1001.02
2012,12,15,07,55,1001.02
2012,12,15,07,56,1001.02
2012,12,15,07,57,1001.02
2012,12,15,07,58,1001.02
2012,12,15,07,59,1001.02
2012,12,15,08,00,1000.60
2012,12,15,08,01,1000.58
2012,12,15,08,02,1000.58
2012,12,15,08,03,1000.58
2012,12,15,08,04,1000.58
2012,12,15,08,05,1000.58
2012,12,15,08,06,1000.58
2012,12,15,08,07,1000.58
2012,12,15,08,08,1000.58
2012,12,15,08,09,1000.58
2012,12,15,08,10,1000.58
2012,12,15,08,11,1000.58
2012,12,15,08,12,1000.58
2012,12,15,08,13,1000.58
2012,12,15,08,14,1000.58
2012,12,15,08,15,1000.17
2012,12,15,08,16,1000.17
2012,12,15,08,17,1000.17
2012,12,15,08,18,1000.17
2012,12,15,08,19,1000.17
2012,12,15,08,20,1000.17
2012,12,15,08,21,1000.17
2012,12,15,08,22,1000.17
2012,12,15,08,23,1000.17
2012,12,15,08,24,1000.17
2012,12,15,08,25,1000.17
2012,12,15,08,26,1000.17
2012,12,15,08,27,1000.17
2012,12,15,08,28,1000.17
2012,12,15,08,29,1000.17
2012,12,15,08,30,999.97
2012,12,15,08,31,999.97
2012,12,15,08,32,999.97
2012,12,15,08,33,999.97
2012,12,15,08,34,999.97
2012,12,15,08,35,999.97
2012,12,15,08,36,999.97
2012,12,15,08,37,999.97
2012,12,15,08,38,999.97
2012,12,15,08,39,999.97
2012,12,15,08,40,999.97
2012,12,15,08,41,999.97
2012,12,15,08,42,999.97
2012,12,15,08,43,999.97
2012,12,15,08,44,999.97
2012,12,15,08,45,999.61
2012,12,15,08,46,999.59
2012,12,15,08,47,999.59
2012,12,15,08,48,999.59
2012,12,15,08,49,999.59
2012,12,15,08,50,999.59
2012,12,15,08,51,999.59
2012,12,15,08,52,999.59
2012,12,15,08,53,999.59
2012,12,15,08,54,999.59
2012,12,15,08,55,999.59
2012,12,15,08,56,999.59
2012,12,15,08,57,999.59
2012,12,15,08,58,999.59
2012,12,15,08,59,999.59
2012,12,15,09,00,999.30
2012,12,15,09,01,999.29
2012,12,15,09,02,999.29
2012,12,15,09,03,999.29
2012,12,15,09,04,999.29
2012,12,15,09,05,999.29
2012,12,15,09,06,999.29
2012,12,15,09,07,999.29
2012,12,15,09,08,999.29
2012,12,15,09,09,999.29
2012,12,15,09,10,999.29
2012,12,15,09,11,999.29
2012,12,15,09,12,999.29
2012,12,15,09,13,999.29
2012,12,15,09,14,999.29
2012,12,15,09,15,998.96
2012,12,15,09,16,998.95
2012,12,15,09,17,998.95
2012,12,15,09,18,998.95
2012,12,15,09,19,998.95
2012,12,15,09,20,998.95
2012,12,15,09,21,998.95
2012,12,15,09,22,998.95
2012,12,15,09,23,998.95
2012,12,15,09,24,998.95
2012,12,15,09,25,998.95
2012,12,15,09,26,998.95
2012,12,15,09,27,998.95
2012,12,15,09,28,998.95
2012,12,15,09,29,998.95
2012,12,15,09,30,998.88
2012,12,15,09,31,998.88
2012,12,15,09,32,998.88
2012,12,15,09,33,998.88
2012,12,15,09,34,998.88
2012,12,15,09,35,998.88
2012,12,15,09,36,998.88
2012,12,15,09,37,998.88
2012,12,15,09,38,998.88
2012,12,15,09,39,998.88
2012,12,15,09,40,998.88
2012,12,15,09,41,998.88
2012,12,15,09,42,998.88
2012,12,15,09,43,998.88
2012,12,15,09,44,998.88
2012,12,15,09,45,998.44
2012,12,15,09,46,998.44
2012,12,15,09,47,998.44
2012,12,15,09,48,998.44
2012,12,15,09,49,998.44
2012,12,15,09,50,998.44
2012,12,15,09,51,998.44
2012,12,15,09,52,998.44
2012,12,15,09,53,998.44
2012,12,15,09,54,998.44
2012,12,15,09,55,998.44
2012,12,15,09,56,998.44
2012,12,15,09,57,998.44
2012,12,15,09,58,998.44
2012,12,15,09,59,998.44
2012,12,15,10,00,998.38
2012,12,15,10,01,998.38
2012,12,15,10,02,998.38
2012,12,15,10,03,998.38
2012,12,15,10,04,998.38
2012,12,15,10,05,998.38
2012,12,15,10,06,998.38
2012,12,15,10,07,998.38
2012,12,15,10,08,998.38
2012,12,15,10,09,998.38
2012,12,15,10,10,998.38
2012,12,15,10,11,998.38
2012,12,15,10,12,998.38
2012,12,15,10,13,998.38
2012,12,15,10,14,998.38
2012,12,15,10,15,997.96
2012,12,15,10,16,997.94
2012,12,15,10,17,997.94
2012,12,15,10,18,997.94
2012,12,15,10,19,997.94
2012,12,15,10,20,997.94
2012,12,15,10,21,997.94
2012,12,15,10,22,997.94
2012,12,15,10,23,997.94
2012,12,15,10,24,997.94
2012,12,15,10,25,997.94
2012,12,15,10,26,997.94
2012,12,15,10,27,997.94
2012,12,15,10,28,997.94
2012,12,15,10,29,997.94
2012,12,15,10,30,997.67
2012,12,15,10,31,997.66
2012,12,15,10,32,997.66
2012,12,15,10,33,997.66
2012,12,15,10,34,997.66
2012,12,15,10,35,997.66
2012,12,15,10,36,997.66
2012,12,15,10,37,997.66
2012,12,15,10,38,997.66
2012,12,15,10,39,997.66
2012,12,15,10,40,997.66
2012,12,15,10,41,997.66
2012,12,15,10,42,997.66
2012,12,15,10,43,997.66
2012,12,15,10,44,997.66
2012,12,15,10,45,997.39
2012,12,15,10,46,997.39
2012,12,15,10,47,997.39
2012,12,15,10,48,997.39
2012,12,15,10,49,997.39
2012,12,15,10,50,997.39
2012,12,15,10,51,997.39
2012,12,15,10,52,997.39
2012,12,15,10,53,997.39
2012,12,15,10,54,997.39
2012,12,15,10,55,997.39
2012,12,15,10,56,997.39
2012,12,15,10,57,997.39
2012,12,15,10,58,997.39
2012,12,15,10,59,997.39
2012,12,15,11,00,997.10
2012,12,15,11,01,997.09
2012,12,15,11,02,997.09
2012,12,15,11,03,997.09
2012,12,15,11,04,997.09
2012,12,15,11,05,997.09
2012,12,15,11,06,997.09
2012,12,15,11,07,997.09
2012,12,15,11,08,997.09
2012,12,15,11,09,997.09
2012,12,15,11,10,997.09
2012,12,15,11,11,997.09
2012,12,15,11,12,997.09
2012,12,15,11,13,997.09
2012,12,15,11,14,997.09
2012,12,15,11,15,996.86
2012,12,15,11,16,996.85
2012,12,15,11,17,996.85
2012,12,15,11,18,996.85
2012,12,15,11,19,996.85
2012,12,15,11,20,996.85
2012,12,15,11,21,996.85
2012,12,15,11,22,996.85
2012,12,15,11,23,996.85
2012,12,15,11,24,996.85
2012,12,15,11,25,996.85
2012,12,15,11,26,996.85
2012,12,15,11,27,996.85
2012,12,15,11,28,996.85
2012,12,15,11,29,996.85
2012,12,15,11,30,996.43
2012,12,15,11,31,996.41
2012,12,15,11,32,996.41
2012,12,15,11,33,996.41
2012,12,15,11,34,996.41
2012,12,15,11,35,996.41
2012,12,15,11,36,996.41
2012,12,15,11,37,996.41
2012,12,15,11,38,996.41
2012,12,15,11,39,996.41
2012,12,15,11,40,996.41
2012,12,15,11,41,996.41
2012,12,15,11,42,996.41
2012,12,15,11,43,996.41
2012,12,15,11,44,996.41
2012,12,15,11,45,996.18
2012,12,15,11,46,996.17
2012,12,15,11,47,996.17
2012,12,15,11,48,996.17
2012,12,15,11,49,996.17
2012,12,15,11,50,996.17
2012,12,15,11,51,996.17
2012,12,15,11,52,996.17
2012,12,15,11,53,996.17
2012,12,15,11,54,996.17
2012,12,15,11,55,996.17
2012,12,15,11,56,996.17
2012,12,15,11,57,996.17
2012,12,15,11,58,996.17
2012,12,15,11,59,996.17
2012,12,15,12,00,995.59
2012,12,15,12,01,995.56
2012,12,15,12,02,995.56
2012,12,15,12,03,995.56
2012,12,15,12,04,995.56
2012,12,15,12,05,995.56
2012,12,15,12,06,995.56
2012,12,15,12,07,995.56
2012,12,15,12,08,995.56
2012,12,15,12,09,995.56
2012,12,15,12,10,995.56
2012,12,15,12,11,995.56
2012,12,15,12,12,995.56
2012,12,15,12,13,995.56
2012,12,15,12,14,995.56
2012,12,15,12,15,995.34
2012,12,15,12,16,995.33
2012,12,15,12,17,995.33
2012,12,15,12,18,995.33
2012,12,15,12,19,995.33
2012,12,15,12,20,995.33
2012,12,15,12,21,995.33
2012,12,15,12,22,995.33
2012,12,15,12,23,995.33
2012,12,15,12,24,995.33
2012,12,15,12,25,995.33
2012,12,15,12,26,995.33
2012,12,15,12,27,995.33
2012,12,15,12,28,995.33
2012,12,15,12,29,995.33
2012,12,15,12,30,995.13
2012,12,15,12,31,995.12
2012,12,15,12,32,995.12
2012,12,15,12,33,995.12
2012,12,15,12,34,995.12
2012,12,15,12,35,995.12
2012,12,15,12,36,995.12
2012,12,15,12,37,995.12
2012,12,15,12,38,995.12
2012,12,15,12,39,995.12
2012,12,15,12,40,995.12
2012,12,15,12,41,995.12
2012,12,15,12,42,995.12
2012,12,15,12,43,995.12
2012,12,15,12,44,995.12
2012,12,15,12,45,994.92
2012,12,15,12,46,994.92
2012,12,15,12,47,994.92
2012,12,15,12,48,994.92
2012,12,15,12,49,994.92
2012,12,15,12,50,994.92
2012,12,15,12,51,994.92
2012,12,15,12,52,994.92
2012,12,15,12,53,994.92
2012,12,15,12,54,994.92
2012,12,15,12,55,994.92
2012,12,15,12,56,994.92
2012,12,15,12,57,994.92
2012,12,15,12,58,994.92
2012,12,15,12,59,994.92
2012,12,15,13,00,995.02
2012,12,15,13,01,995.02
2012,12,15,13,02,995.02
2012,12,15,13,03,995.02
2012,12,15,13,04,995.02
2012,12,15,13,05,995.02
2012,12,15,13,06,995.02
2012,12,15,13,07,995.02
2012,12,15,13,08,995.02
2012,12,15,13,09,995.02
2012,12,15,13,10,995.02
2012,12,15,13,11,995.02
2012,12,15,13,12,995.02
2012,12,15,13,13,995.02
2012,12,15,13,14,995.02
2012,12,15,13,15,995.22
2012,12,15,13,16,995.23
2012,12,15,13,17,995.23
2012,12,15,13,18,995.23
2012,12,15,13,19,995.23
2012,12,15,13,20,995.23
2012,12,15,13,21,995.23
2012,12,15,13,22,995.23
2012,12,15,13,23,995.23
2012,12,15,13,24,995.23
2012,12,15,13,25,995.23
2012,12,15,13,26,995.23
2012,12,15,13,27,995.23
2012,12,15,13,28,995.23
2012,12,15,13,29,995.23
2012,12,15,13,30,995.10
2012,12,15,13,31,995.09
2012,12,15,13,32,995.09
2012,12,15,13,33,995.09
2012,12,15,13,34,995.09
2012,12,15,13,35,995.09
2012,12,15,13,36,995.09
2012,12,15,13,37,995.09
2012,12,15,13,38,995.09
2012,12,15,13,39,995.09
2012,12,15,13,40,995.09
2012,12,15,13,41,995.09
2012,12,15,13,42,995.09
2012,12,15,13,43,995.09
2012,12,15,13,44,995.09
2012,12,15,13,45,995.39
2012,12,15,13,46,995.40
2012,12,15,13,47,995.40
2012,12,15,13,48,995.40
2012,12,15,13,49,995.40
2012,12,15,13,50,995.40
2012,12,15,13,51,995.40
2012,12,15,13,52,995.40
2012,12,15,13,53,995.40
2012,12,15,13,54,995.40
2012,12,15,13,55,995.40
2012,12,15,13,56,995.40
2012,12,15,13,57,995.40
2012,12,15,13,58,995.40
2012,12,15,13,59,995.40
2012,12,15,14,00,995.55
2012,12,15,14,01,995.56
2012,12,15,14,02,995.56
2012,12,15,14,03,995.56
2012,12,15,14,04,995.56
2012,12,15,14,05,995.56
2012,12,15,14,06,995.56
2012,12,15,14,07,995.56
2012,12,15,14,08,995.56
2012,12,15,14,09,995.56
2012,12,15,14,10,995.56
2012,12,15,14,11,995.56
2012,12,15,14,12,995.56
2012,12,15,14,13,995.56
2012,12,15,14,14,995.56
2012,12,15,14,15,995.44
2012,12,15,14,16,995.43
2012,12,15,14,17,995.43
2012,12,15,14,18,995.43
2012,12,15,14,19,995.43
2012,12,15,14,20,995.43
2012,12,15,14,21,995.43
2012,12,15,14,22,995.43
2012,12,15,14,23,995.43
2012,12,15,14,24,995.43
2012,12,15,14,25,995.43
2012,12,15,14,26,995.43
2012,12,15,14,27,995.43
2012,12,15,14,28,995.43
2012,12,15,14,29,995.43
2012,12,15,14,30,995.55
2012,12,15,14,31,995.56
2012,12,15,14,32,995.56
2012,12,15,14,33,995.56
2012,12,15,14,34,995.56
2012,12,15,14,35,995.56
2012,12,15,14,36,995.56
2012,12,15,14,37,995.56
2012,12,15,14,38,995.56
2012,12,15,14,39,995.56
2012,12,15,14,40,995.56
2012,12,15,14,41,995.56
2012,12,15,14,42,995.56
2012,12,15,14,43,995.56
2012,12,15,14,44,995.56
2012,12,15,14,45,995.27
2012,12,15,14,46,995.26
2012,12,15,14,47,995.26
2012,12,15,14,48,995.26
2012,12,15,14,49,995.26
2012,12,15,14,50,995.26
2012,12,15,14,51,995.26
2012,12,15,14,52,995.26
2012,12,15,14,53,995.26
2012,12,15,14,54,995.26
2012,12,15,14,55,995.26
2012,12,15,14,56,995.26
2012,12,15,14,57,995.26
2012,12,15,14,58,995.26
2012,12,15,14,59,995.26
2012,12,15,15,00,995.29
2012,12,15,15,01,995.29
2012,12,15,15,02,995.29
2012,12,15,15,03,995.29
2012,12,15,15,04,995.29
2012,12,15,15,05,995.29
2012,12,15,15,06,995.29
2012,12,15,15,07,995.29
2012,12,15,15,08,995.29
2012,12,15,15,09,995.29
2012,12,15,15,10,995.29
2012,12,15,15,11,995.29
2012,12,15,15,12,995.29
2012,12,15,15,13,995.29
2012,12,15,15,14,995.29
2012,12,15,15,15,995.39
2012,12,15,15,16,995.40
2012,12,15,15,17,995.40
2012,12,15,15,18,995.40
2012,12,15,15,19,995.40
2012,12,15,15,20,995.40
2012,12,15,15,21,995.40
2012,12,15,15,22,995.40
2012,12,15,15,23,995.40
2012,12,15,15,24,995.40
2012,12,15,15,25,995.40
2012,12,15,15,26,995.40
2012,12,15,15,27,995.40
2012,12,15,15,28,995.40
2012,12,15,15,29,995.40
2012,12,15,15,30,995.72
2012,12,15,15,31,995.73
2012,12,15,15,32,995.73
2012,12,15,15,33,995.73
2012,12,15,15,34,995.73
2012,12,15,15,35,995.73
2012,12,15,15,36,995.73
2012,12,15,15,37,995.73
2012,12,15,15,38,995.73
2012,12,15,15,39,995.73
2012,12,15,15,40,995.73
2012,12,15,15,41,995.73
2012,12,15,15,42,995.73
2012,12,15,15,43,995.73
2012,12,15,15,44,995.73
2012,12,15,15,45,995.86
2012,12,15,15,46,995.87
2012,12,15,15,47,995.87
2012,12,15,15,48,995.87
2012,12,15,15,49,995.87
2012,12,15,15,50,995.87
2012,12,15,15,51,995.87
2012,12,15,15,52,995.87
2012,12,15,15,53,995.87
2012,12,15,15,54,995.87
2012,12,15,15,55,995.87
2012,12,15,15,56,995.87
2012,12,15,15,57,995.87
2012,12,15,15,58,995.87
2012,12,15,15,59,995.87
2012,12,15,16,00,996.00
2012,12,15,16,01,996.01
2012,12,15,16,02,996.01
2012,12,15,16,03,996.01
2012,12,15,16,04,996.01
2012,12,15,16,05,996.01
2012,12,15,16,06,996.01
2012,12,15,16,07,996.01
2012,12,15,16,08,996.01
2012,12,15,16,09,996.01
2012,12,15,16,10,996.01
2012,12,15,16,11,996.01
2012,12,15,16,12,996.01
2012,12,15,16,13,996.01
2012,12,15,16,14,996.01